TimeCDT,TemperatureF,Dew PointF,Humidity,Sea Level PressureIn,VisibilityMPH,Wind Direction,Wind SpeedMPH,Gust SpeedMPH,PrecipitationIn,Events,Conditions,WindDirDegrees,DateUTC
12:56 AM,75.9,72.0,87,29.78,-9999.0,Variable,6.9,-,N/A,,Overcast,0,2013-09-25 05:56:00
1:56 AM,75.0,71.1,87,29.79,-9999.0,SSE,3.5,-,N/A,,Overcast,160,2013-09-25 06:56:00
2:34 AM,75.2,71.6,89,29.79,-9999.0,SE,3.5,-,N/A,,Overcast,140,2013-09-25 07:34:00
2:56 AM,73.9,71.1,91,29.79,-9999.0,SE,3.5,-,N/A,,Overcast,140,2013-09-25 07:56:00
3:56 AM,73.9,71.1,91,29.78,-9999.0,Calm,Calm,-,N/A,,Overcast,0,2013-09-25 08:56:00
4:04 AM,73.4,71.6,94,29.79,-9999.0,Calm,Calm,-,N/A,,Overcast,0,2013-09-25 09:04:00
4:17 AM,73.4,71.6,94,29.79,-9999.0,ESE,4.6,-,N/A,,Overcast,110,2013-09-25 09:17:00
4:27 AM,73.4,71.6,94,29.79,-9999.0,ESE,4.6,-,N/A,,Overcast,110,2013-09-25 09:27:00
4:56 AM,73.9,71.1,91,29.78,-9999.0,ESE,3.5,-,N/A,,Overcast,120,2013-09-25 09:56:00
5:11 AM,73.4,71.6,94,29.79,-9999.0,ESE,4.6,-,0.02,Rain,Rain,110,2013-09-25 10:11:00
5:15 AM,73.4,71.6,94,29.79,-9999.0,East,3.5,-,0.02,Rain,Light Rain,100,2013-09-25 10:15:00
5:22 AM,73.4,71.6,94,29.79,-9999.0,Calm,Calm,-,0.02,Rain,Light Rain,0,2013-09-25 10:22:00
5:49 AM,73.4,71.6,94,29.80,-9999.0,Calm,Calm,-,0.03,Rain,Light Rain,0,2013-09-25 10:49:00
5:56 AM,73.9,71.1,91,29.79,-9999.0,Calm,Calm,-,0.03,Rain,Light Rain,0,2013-09-25 10:56:00
6:14 AM,73.4,71.6,94,29.79,-9999.0,East,4.6,-,0.11,Rain,Heavy Rain,90,2013-09-25 11:14:00
6:50 AM,73.4,71.6,94,29.80,-9999.0,SSE,4.6,-,0.21,,Overcast,150,2013-09-25 11:50:00
6:56 AM,73.9,71.1,91,29.80,-9999.0,SE,4.6,-,0.21,Rain,Light Rain,140,2013-09-25 11:56:00
7:56 AM,73.9,71.1,91,29.81,-9999.0,Calm,Calm,-,0.00,,Overcast,0,2013-09-25 12:56:00
8:56 AM,75.0,72.0,90,29.81,-9999.0,SSE,4.6,-,N/A,,Overcast,160,2013-09-25 13:56:00
9:44 AM,77.0,71.6,83,29.83,-9999.0,Calm,Calm,-,N/A,,Overcast,0,2013-09-25 14:44:00
9:56 AM,77.0,72.0,84,29.82,-9999.0,Calm,Calm,-,N/A,,Overcast,0,2013-09-25 14:56:00
10:22 AM,78.8,71.6,78,29.83,-9999.0,Calm,Calm,-,N/A,,Overcast,0,2013-09-25 15:22:00
10:56 AM,78.1,72.0,81,29.82,-9999.0,Calm,Calm,-,N/A,,Overcast,0,2013-09-25 15:56:00
11:15 AM,80.6,71.6,74,29.83,-9999.0,Calm,Calm,-,N/A,,Overcast,0,2013-09-25 16:15:00
11:28 AM,80.6,71.6,74,29.83,-9999.0,North,6.9,-,N/A,,Overcast,350,2013-09-25 16:28:00
11:56 AM,81.0,72.0,74,29.81,-9999.0,North,5.8,-,N/A,,Overcast,350,2013-09-25 16:56:00
12:25 PM,82.4,71.6,70,29.81,-9999.0,NNW,5.8,-,N/A,,Mostly Cloudy,330,2013-09-25 17:25:00
1:56 PM,84.9,70.0,61,29.77,-9999.0,NW,8.1,-,N/A,,Unknown,320,2013-09-25 18:56:00
2:56 PM,86.0,68.0,55,29.74,-9999.0,WNW,5.8,-,N/A,,Partly Cloudy,300,2013-09-25 19:56:00
3:56 PM,86.0,68.0,55,29.74,-9999.0,WNW,4.6,-,N/A,,Partly Cloudy,290,2013-09-25 20:56:00
4:56 PM,86.0,68.0,55,29.75,-9999.0,WNW,6.9,-,N/A,,Scattered Clouds,300,2013-09-25 21:56:00
5:56 PM,84.0,70.0,63,29.76,-9999.0,NNW,5.8,-,N/A,,Clear,340,2013-09-25 22:56:00
6:56 PM,81.0,71.1,72,29.78,-9999.0,Calm,Calm,-,N/A,,Clear,0,2013-09-25 23:56:00
7:56 PM,75.9,72.0,87,29.80,-9999.0,Calm,Calm,-,N/A,,Clear,0,2013-09-26 00:56:00
8:56 PM,75.0,71.1,87,29.81,-9999.0,Calm,Calm,-,N/A,,Clear,0,2013-09-26 01:56:00
9:56 PM,73.9,70.0,87,29.82,-9999.0,Calm,Calm,-,N/A,,Clear,0,2013-09-26 02:56:00
10:56 PM,73.0,69.1,87,29.82,-9999.0,Calm,Calm,-,N/A,,Clear,0,2013-09-26 03:56:00
11:56 PM,73.0,69.1,87,29.82,-9999.0,Calm,Calm,-,N/A,,Clear,0,2013-09-26 04:56:00